Flag Weather past 2 weeks in L'viv, Ukraine

Now
27 °F

Low clouds.


Feels Like: 17 °F
Forecast: 18 / 24 °F
Wind: 10 mph from Southeast

Location: L'Viv Airport

Current Time: Nov 27, 2014 at 4:16:46 AM

Latest Report: Nov 27, 2014 at 3:30 AM


Visibility: 5 mi

Pressure: 30.21 "Hg

Humidity: 93%

Dew point: 25 °F

Location of L'vivLocation

Historic Weather in L'viv — Graph

°F

L'viv temperature yesterday

Maximum temperature yesterday: 28 °F (at 12:00 AM)
Minimum temperature yesterday: 27 °F (at 5:30 AM)
Average temperature yesterday: 27 °F

Past Weeks' High & Low Weather Summary

 TemperatureHumidityPressure
High48 °F (Nov 12, 11:30 PM)100% (Nov 12, 6:00 AM)30.48 "Hg (Nov 12, 6:00 AM)
Low27 °F (Nov 25, 7:00 AM)75% (Nov 23, 4:00 PM)29.92 "Hg (Nov 13, 2:49 AM)
Average36 °F93%30.17 "Hg
* Reported Nov 12 3:00 AM — Nov 27 3:00 AM, L'viv, Weather by CustomWeather, © 2014

Note: Actual official high and low records may vary slightly from our data, if they occured in-between our weather recording intervals... More about our weather records

Advertising

L'viv weather history for previous 24 hours

 ConditionsComfort  
Time TempWeatherWind HumidityBarometerVisibility
3:00 AM
Nov 27
27 °FLow clouds.8 mph93%30.21 "Hg4 mi
2:30 AM27 °FLow clouds.8 mph93%30.24 "Hg4 mi
2:00 AM27 °FLight snow. Low clouds.8 mph93%30.21 "Hg4 mi
1:30 AM27 °FLight snow. Low clouds.8 mph93%30.24 "Hg4 mi
1:00 AM27 °FLight snow. Low clouds.6 mph93%30.24 "Hg4 mi
12:30 AM27 °FLight snow. Low clouds.8 mph93%30.24 "Hg4 mi
12:00 AM27 °FLight snow. Low clouds.8 mph93%30.24 "Hg4 mi
11:30 PM
Nov 26
27 °FLight snow. Ice fog.8 mph93%30.24 "Hg3 mi
11:00 PM27 °FLight snow. Low clouds.8 mph93%30.24 "Hg4 mi
10:30 PM27 °FLight snow. Low clouds.8 mph93%30.24 "Hg4 mi
10:00 PM27 °FLight snow. Low clouds.8 mph93%30.24 "Hg4 mi
9:30 PM27 °FLight snow. Low clouds.8 mph93%30.24 "Hg4 mi
9:00 PM27 °FLight snow. Ice fog.8 mph100%30.24 "Hg3 mi
8:30 PM27 °FLight snow. Low clouds.8 mph93%30.24 "Hg4 mi
8:00 PM27 °FLight snow. Low clouds.8 mph93%30.24 "Hg4 mi
7:30 PM27 °FLight snow. Low clouds.8 mph93%30.27 "Hg4 mi
7:00 PM27 °FLight snow. Low clouds.8 mph93%30.27 "Hg4 mi
6:30 PM27 °FLight snow. Low clouds.8 mph93%30.27 "Hg4 mi
6:00 PM27 °FLight snow. Ice fog.8 mph100%30.27 "Hg3 mi
5:30 PM27 °FLight snow. Ice fog.8 mph93%30.27 "Hg2 mi
5:00 PM27 °FLight snow. Ice fog.8 mph100%30.27 "Hg1 mi
4:30 PM27 °FLight snow. Ice fog.8 mph100%30.27 "Hg2 mi
4:00 PM27 °FLight snow. Ice fog.8 mph100%30.27 "Hg2 mi
3:30 PM27 °FLight snow. Ice fog.8 mph100%30.27 "Hg3 mi
3:00 PM27 °FLight snow. Ice fog.8 mph100%30.27 "Hg3 mi
2:30 PM27 °FLight snow. Ice fog.8 mph100%30.27 "Hg3 mi
2:00 PM27 °FLight snow. Ice fog.8 mph100%30.27 "Hg2 mi
1:30 PM27 °FLight snow. Ice fog.8 mph100%30.27 "Hg2 mi
1:00 PM27 °FLight snow. Ice fog.8 mph100%30.30 "Hg2 mi
12:30 PM27 °FLight snow. Ice fog.8 mph100%30.30 "Hg2 mi
12:00 PM27 °FLight snow. Ice fog.8 mph100%30.30 "Hg2 mi
11:30 AM27 °FLight snow. Ice fog.8 mph100%30.30 "Hg2 mi
11:00 AM27 °FLight snow. Ice fog.8 mph100%30.30 "Hg2 mi
10:56 AM27 °FLight snow. Ice fog.8 mph100%30.30 "Hg2 mi
10:30 AM27 °FLight snow. Ice fog.8 mph100%30.30 "Hg2 mi
10:00 AM27 °FLight snow. Ice fog.8 mph100%30.30 "Hg2 mi
9:47 AM27 °FLight snow. Ice fog.8 mph100%30.30 "Hg2 mi
9:30 AM27 °FLight snow. Ice fog.6 mph100%30.30 "Hg2 mi
9:00 AM27 °FIce fog.8 mph100%30.30 "Hg1 mi
8:30 AM27 °FLight snow. Ice fog.8 mph100%30.30 "Hg1 mi
8:00 AM27 °FLight snow. Ice fog.8 mph100%30.30 "Hg1 mi
7:30 AM27 °FIce fog.8 mph100%30.30 "Hg1 mi
7:00 AM27 °FIce fog.6 mph100%30.30 "Hg1 mi
6:30 AM27 °FIce fog.6 mph100%30.30 "Hg1 mi
6:00 AM27 °FIce fog.8 mph100%30.30 "Hg1 mi
5:30 AM27 °FIce fog.6 mph100%30.30 "Hg1 mi
5:00 AM28 °FIce fog.6 mph93%30.30 "Hg1 mi
4:30 AM28 °FIce fog.8 mph93%30.30 "Hg1 mi
4:00 AM28 °FIce fog.6 mph93%30.30 "Hg1 mi
Weather by CustomWeather, © 2014

See weather overviewHow to use our weather pages